Showing default

HYSIS, 43719

Orbit data source: Space-Track

HYSIS, 43719 is a payload satellite owned by ISRO (IN) in SSO that was launched on Thu, 29 Nov 2018 UTC via a PSLV launch vehicle from the Sirharikota (SRI). Payload-class satellites include a variety of spacecraft equipped with specific instruments for various scientific and technological missions. These include communications satellites like Starlink; space stations such as the ISS; scientific satellites like the Hubble; Earth observation satellites from companies like Planet Labs, Umbra, and HawkEye 360; GPS; miniature CubeSats for education and research; and military/defense satellites.

Loading next visibility...
Identifier
43719, 2018-096A
Orbit
SSO
Country
Flag of ININ / IND
Related business
Manufacturer
ISRO
Mission
Operational Civil Imaging
Bus & Motor
SSB-2, AOCS
Mass
380 kg wet, ~350 kg dry
Launch date (UTC)
2018-11-29 (7 years ago)
Launch vehicle
PSLV
Launch site
Sirharikota (SRI)
Object type
Payload
Rocket body
Debris
Shape & HBR
Box + 2 Pan, 3.0 m
Radar Cross Section
4.485 m², Large (>1 m²)

Expand to show TLE details & history
Last TLE update: 14 hours ago

TLE from 14 hours ago
0 HYSIS
1 43719U 18096A   25260.29529837  .00001068  00000-0  15281-3 0  9993
2 43719  98.0214 323.6399 0000516 110.9119 249.2147 14.78662093367099
Epoch: 2025-09-17T07:05Z
TLE epoch observation values (Epoch: 2025-09-17T07:05:13.779Z)
Latitude
-0.00001°
Longitude
-139.14081°
Altitude
636.695 km
Speed
7.54 km/s
True Right ascension
21h 34m 33s
True Declination
0° 00' 00"
Sunlit
Object was in full shadow at epoch
Visualization orbit readout
Latitude
Unknown
Longitude
Unknown
Altitude
Unknown
Speed
Unknown
Apparent Right ascension
Unknown
Apparent Declination
Unknown
Sunlit
N/A
Visualization observer readout
Local Sidereal Time
13:32:14
Azimuth
Unknown
Elevation
Unknown
Doppler factor
Unknown
Orbital elements
Apogee altitude
630.96 km
Perigee altitude
630.237 km
Semi-major axis
7,008.736 km
Eccentricity
0.00005
Inclination
98.0214°
RAAN
323.6399°
Arg. of periapsis
110.9119°
True anomaly
249.20917°
Mean anomaly
249.2147°
Eccentric anomaly
249.21194°
Mean motion
3.69899 °/min
Orbital period
97.32 mins
BSTAR
0.00015281
Loading maneuver chart data...
Computing Atmospheric mass density...

Documentation

Showing up to 5 results
|